User: anonymous   Login
Location: Unspecified
(0.0000°N, 0.0000°E)
Time: 17:40:24
(UTC+00:00)
Language:

GSAT 9 - Orbit

View from above orbital plane
View from above orbital plane
View from above satellite
View from above satellite

Ground track
Ground track

The orbit data is extracted from the following two-line orbital elements,

1 42695U 17024A   21212.07518271 -.00000288  00000-0  00000+0 0  9997
2 42695   0.0947 280.0815 0002503 204.2895 308.8891  1.00269935 15561
Epoch (UTC): 31 July 2021 01:48:15
Eccentricity: 0.0002503
inclination: 0.0947°
perigee height: 35776 km
apogee height: 35797 km
right ascension of ascending node: 280.0815°
argument of perigee: 204.2895°
revolutions per day: 1.00269935
mean anomaly at epoch: 308.8891°
orbit number at epoch: 1556

The dashed part of the orbit path shows where the satellite is in the earth's shadow,  

DLR